Date,TemperatureHighF,TemperatureAvgF,TemperatureLowF,DewpointHighF,DewpointAvgF,DewpointLowF,HumidityHigh,HumidityAvg,HumidityLow,PressureMaxIn,PressureMinIn,WindSpeedMaxMPH,WindSpeedAvgMPH,GustSpeedMaxMPH,PrecipitationSumIn
2013-4-1,53,44,27,46,33,14,99,70,29,29.94,29.65,23,3,23,0.07
2013-4-2,44,33,22,19,16,13,80,53,32,30.11,29.93,22,3,22,0.07
2013-4-3,44,33,21,21,16,12,81,53,30,30.35,30.09,22,2,22,0.07
2013-4-4,59,39,20,29,21,14,84,52,28,30.38,30.02,14,2,14,0.07
2013-4-5,61,45,28,32,24,19,79,47,24,30.05,29.78,22,3,23,0.07
2013-4-6,62,43,26,25,20,15,69,43,21,30.31,30.05,16,2,16,0.07
2013-4-7,67,54,41,45,35,20,69,49,38,30.20,29.90,22,4,25,0.07
2013-4-8,82,60,36,53,45,34,96,62,32,30.08,29.89,20,2,20,0.07
2013-4-9,86,69,52,55,50,46,85,55,29,30.02,29.83,19,3,19,0.07
2013-4-10,84,69,60,64,59,52,98,72,50,29.92,29.75,27,2,31,0.65
2013-4-11,60,55,50,59,51,46,99,87,80,29.93,29.78,18,3,18,0.06
2013-4-12,50,47,43,46,44,41,95,89,84,29.88,29.63,19,3,19,0.37
2013-4-13,57,47,38,45,38,35,97,74,49,29.94,29.78,19,2,19,0.06
2013-4-14,60,49,38,40,35,28,92,61,40,30.24,29.89,18,3,20,0.06
2013-4-15,71,55,44,52,42,33,73,62,48,30.26,30.13,18,2,18,0.06
2013-4-16,70,60,53,60,53,44,91,77,70,30.26,30.06,23,2,23,0.06
2013-4-17,76,60,46,59,45,37,98,62,29,30.27,30.11,13,2,13,0.18
2013-4-18,62,57,45,58,48,39,90,74,50,30.23,29.96,22,3,22,0.06
2013-4-19,76,64,50,67,59,49,100,84,70,29.97,29.50,33,6,33,0.71
2013-4-20,54,47,37,50,33,23,100,59,38,30.36,29.74,24,4,24,0.06
2013-4-21,60,42,26,33,27,21,86,59,31,30.58,30.36,15,1,15,0.06
2013-4-22,64,48,31,38,33,28,91,60,34,30.58,30.40,21,2,21,0.06
2013-4-23,71,51,36,47,39,30,86,66,40,30.43,30.06,13,2,13,0.06
2013-4-24,76,56,37,61,49,36,99,80,50,30.09,29.71,26,3,26,0.35
2013-4-25,66,51,41,41,36,33,79,59,32,30.25,30.00,23,2,23,0.06
2013-4-26,68,51,36,39,35,29,94,59,27,30.43,30.25,12,1,12,0.06
2013-4-27,80,55,32,44,38,30,95,60,26,30.42,30.23,11,1,11,0.06
2013-4-28,73,56,37,50,42,35,97,64,34,30.26,30.11,22,3,22,0.06
2013-4-29,59,56,52,55,49,37,92,79,55,30.14,30.05,16,2,16,0.06
2013-4-30,72,61,54,57,52,36,93,72,49,30.29,30.12,14,2,16,0.06